TimePDT,TemperatureF,Dew PointF,Humidity,Sea Level PressureIn,VisibilityMPH,Wind Direction,Wind SpeedMPH,Gust SpeedMPH,PrecipitationIn,Events,Conditions,WindDirDegrees,DateUTC
12:06 AM,53.6,48.2,82,30.16,10.0,SSE,5.8,-,N/A,,Overcast,150,2012-10-14 07:06:00
12:53 AM,53.1,48.9,86,30.17,10.0,SSE,6.9,-,N/A,,Overcast,160,2012-10-14 07:53:00
1:53 AM,53.1,48.9,86,30.17,10.0,SSE,8.1,-,N/A,,Overcast,160,2012-10-14 08:53:00
2:53 AM,53.1,50.0,89,30.14,10.0,South,8.1,-,N/A,,Overcast,170,2012-10-14 09:53:00
3:53 AM,53.1,50.0,89,30.13,10.0,South,8.1,-,N/A,,Overcast,170,2012-10-14 10:53:00
4:53 AM,52.0,48.9,89,30.14,10.0,South,6.9,-,N/A,,Overcast,170,2012-10-14 11:53:00
5:53 AM,52.0,50.0,93,30.13,10.0,SSE,8.1,-,0.01,,Overcast,150,2012-10-14 12:53:00
6:39 AM,51.8,48.2,88,30.11,10.0,SSE,6.9,-,N/A,,Overcast,150,2012-10-14 13:39:00
6:53 AM,52.0,48.9,89,30.11,10.0,SSE,8.1,-,N/A,,Overcast,150,2012-10-14 13:53:00
7:53 AM,52.0,50.0,93,30.09,10.0,South,8.1,-,0.00,,Overcast,170,2012-10-14 14:53:00
8:53 AM,53.1,50.0,89,30.09,10.0,SSW,5.8,-,N/A,,Clear,210,2012-10-14 15:53:00
9:53 AM,55.0,51.1,86,30.07,10.0,Calm,Calm,-,N/A,,Scattered Clouds,0,2012-10-14 16:53:00
10:53 AM,59.0,48.9,69,30.04,10.0,South,13.8,-,N/A,,Overcast,180,2012-10-14 17:53:00
11:53 AM,60.1,48.0,64,30.03,10.0,South,10.4,-,N/A,,Scattered Clouds,190,2012-10-14 18:53:00
1:53 PM,62.1,46.9,58,30.01,10.0,SW,12.7,-,N/A,,Mostly Cloudy,230,2012-10-14 20:53:00
2:53 PM,63.0,46.9,56,29.99,10.0,SSW,9.2,-,N/A,,Overcast,200,2012-10-14 21:53:00
3:53 PM,64.9,46.9,52,29.98,10.0,SW,13.8,20.7,N/A,,Overcast,220,2012-10-14 22:53:00
4:53 PM,64.0,46.9,54,29.97,10.0,SSW,11.5,-,N/A,,Scattered Clouds,210,2012-10-14 23:53:00
5:53 PM,59.0,51.1,75,29.99,10.0,SW,10.4,-,0.01,Rain,Light Rain,230,2012-10-15 00:53:00
6:53 PM,55.9,53.1,90,29.97,10.0,South,8.1,-,0.01,Rain,Light Rain,170,2012-10-15 01:53:00
7:53 PM,55.0,52.0,89,29.97,10.0,South,8.1,-,0.01,,Overcast,170,2012-10-15 02:53:00
8:53 PM,55.0,52.0,89,29.94,10.0,SSE,9.2,-,0.00,,Overcast,160,2012-10-15 03:53:00
9:53 PM,55.0,52.0,89,29.94,10.0,South,9.2,-,N/A,,Overcast,180,2012-10-15 04:53:00
10:53 PM,55.0,51.1,86,29.92,10.0,SSW,9.2,-,N/A,,Overcast,200,2012-10-15 05:53:00
11:53 PM,54.0,51.1,90,29.91,10.0,South,6.9,-,N/A,,Overcast,190,2012-10-15 06:53:00